User: anonymous   Login
Location: Unspecified
(0.0000°N, 0.0000°E)
Time: 22:08:57
(UTC+02:00)
Language:

ARIANE 44L R/B - Orbit

View from above orbital plane
View from above orbital plane
View from above satellite
View from above satellite

Ground track
Ground track

The orbit data is extracted from the following two-line orbital elements,

1 26901U 01039B   15148.15776737  .00010294  00000-0  20160-2 0  9990
2 26901 007.0808 155.0621 6959018 307.1985 018.6711 02.70086330122888
Epoch (UTC): 28 May 2015 03:47:11
Eccentricity: 0.6959018
inclination: 7.0808°
perigee height: 245 km
apogee height: 30559 km
right ascension of ascending node: 155.0621°
argument of perigee: 307.1985°
revolutions per day: 2.70086330
mean anomaly at epoch: 18.6711°
orbit number at epoch: 12288

The dashed part of the orbit path shows where the satellite is in the earth's shadow,  

DLR